Regional Weather Roundup
Issued by NWS

Home | Current Version | Previous Version | Text Only | Print | Product List | Glossary Off
Versions: 1 2 3 4 5 6 7 8 9 10 11 12 13 14 15 16 17 18 19 20 21 22 23 24 25 26 27 28 29 30 31 32 33 34 35 36 37 38 39 40 41 42 43 44 45 46 47 48 49 50

000
ASUS43 KFSD 201710
RWRSD

WEATHER ROUNDUP FOR SOUTH DAKOTA
NATIONAL WEATHER SERVICE SIOUX FALLS SD
1200 PM CDT SUN AUG 20 2017

NOTE: "FAIR" INDICATES FEW OR NO CLOUDS BELOW 12,000 FEET WITH NO
SIGNIFICANT WEATHER AND/OR OBSTRUCTIONS TO VISIBILITY.


SDZ001>005-009-010-012>017-201800-
NORTHWEST AND NORTH CENTRAL SOUTH DAKOTA

CITY           SKY/WX    TMP DP  RH WIND       PRES   REMARKS
BUFFALO          N/A     71  41  33 SE17      30.03F
FAITH            N/A     71  42  35 NE10      30.09S
MOBRIDGE       LGT RAIN  67  51  56 NE9       30.03F
$$

SDZ012>016-024>037-041>051-057-063-072>074-201800-
SOUTHWEST AND SOUTH CENTRAL SOUTH DAKOTA

CITY           SKY/WX    TMP DP  RH WIND       PRES   REMARKS
RAPID CTY ARPT SUNNY     71  47  42 NW3       30.11S
PIERRE         SUNNY     77  53  43 N9        30.02R
CUSTER         SUNNY     66  45  46 E14       30.20S
ELLSWORTH AFB  SUNNY     71  47  42 NE6       30.11S
PHILIP         SUNNY     78  54  43 N12       30.05S
PINE RIDGE     SUNNY     78  53  41 E12       30.09S
SPEARFISH      FAIR      72  46  40 E12G18    30.12F
WINNER         FAIR      78  60  53 NE16      30.01R
$$

SDZ004>011-016>023-039-040-201800-
NORTHEAST SOUTH DAKOTA

CITY           SKY/WX    TMP DP  RH WIND       PRES   REMARKS
ABERDEEN       CLOUDY    67  53  61 N17       29.97F
WATERTOWN      CLOUDY    67  55  65 NE6       30.01S
BROOKINGS      CLOUDY    73  60  63 N10       30.00R
SISSETON         N/A     67  56  67 NW5       30.00R
$$

SDZ017-020-022-023-036>040-048>070-201800-
SOUTHEAST SOUTH DAKOTA

CITY           SKY/WX    TMP DP  RH WIND       PRES   REMARKS
SIOUX FALLS    PTSUNNY   79  68  69 NE7       29.98R
HURON          SUNNY     75  55  49 NE12      29.99F
CHAMBERLAIN    SUNNY     77  56  48 NE13      30.00R
MITCHELL       PTSUNNY   77  68  73 N7        29.99F
YANKTON        SUNNY     79  67  66 CALM      29.97S
$$

ABBREVIATIONS USED IN REMARKS
   TC - TEMPERATURE IN CELSIUS
  WCI - WIND CHILL INDEX
   HX - HEAT INDEX
  VSB - VISIBILITY





USA.gov is the U.S. government's official web portal to all federal, state and local government web resources and services.